This demonstration page uses our WeatherBlox Daily Observations layout. Learn more.

Left ArrowRight Arrow

38.20091, -84.87328

Hourly Observations for June 10, 2021

Temp ( °F °C ) Dew Point ( °F °C ) Humidity (%) Winds ( mph kmh ) Pressure ( in mb ) Visibility ( mi km ) Precip ( " mm )
12:53 am 00:53 Mostly Cloudy 71 21.7 68 20 90 90 Calm 29.98 1015 10 16 0.00 0.00
1:08 am 01:08 Mostly Cloudy 72 22.2 68 20 87 87 Calm 29.96 1015 10 16 0.00 0.00
1:19 am 01:19 Mostly Cloudy 72 22.2 69 20.6 91 91 Calm 29.96 1015 9 14 0.00 0.00
1:25 am 01:25 Mostly Cloudy with Mist and Fog 70 21.1 68 20 93 93 Calm 29.97 1015 3 4 0.00 0.00
1:39 am 01:39 Mostly Cloudy 70 21.1 68 20 93 93 Calm 29.97 1015 9 14 0.00 0.00
1:53 am 01:53 Partly Cloudy 70 21.1 68 20 93 93 Calm 29.96 1015 9 14 0.00 0.00
2:53 am 02:53 Clear with Mist and Fog 69 20.6 66 18.9 90 90 Calm 29.95 1014 5 8 0.00 0.00
2:55 am 02:55 Clear with Mist and Fog 69 20.6 66 18.9 90 90 Calm 29.95 1014 2 3 0.00 0.00
3:09 am 03:09 Clear with Mist and Fog 69 20.6 67 19.4 93 93 Calm 29.94 1014 4 6 0.00 0.00
3:24 am 03:24 Partly Cloudy with Mist and Fog 69 20.6 67 19.4 93 93 Calm 29.94 1014 3 4 0.00 0.00
3:31 am 03:31 Partly Cloudy 70 21.1 67 19.4 90 90 Calm 29.95 1014 9 14 0.00 0.00
3:53 am 03:53 Mostly Cloudy 69 20.6 67 19.4 93 93 Calm 29.94 1014 10 16 0.00 0.00
4:29 am 04:29 Cloudy with Light Rain 70 21.1 67 19.4 90 90 Calm 29.94 1014 5 8 0.01 0.25
4:43 am 04:43 Cloudy 72 22.2 69 20.6 91 91 Calm 29.92 1013 9 14 0.02 0.51
4:50 am 04:50 Cloudy 72 22 70 21 94 94 Calm 29.93 1013 10 16 0.02 0.51
4:53 am 04:53 Cloudy 72 22.2 69 20.6 91 91 Calm 29.93 1014 10 16 0.02 0.51
5:00 am 05:00 Cloudy 72 22.2 69 20.6 91 91 Calm 29.93 1014 10 16 0.00 0.00
5:32 am 05:32 Cloudy 72 22.2 69 20.6 91 91 SSE 5 7 29.92 1013 8 13 0.00 0.00
5:43 am 05:43 Cloudy 72 22.2 69 20.6 91 91 SSE 5 7 29.92 1013 9 14 0.00 0.00
5:53 am 05:53 Cloudy 72 22.2 70 21.1 94 94 S 6 9 29.93 1013 8 13 0.00 0.00
6:53 am 06:53 Cloudy with Mist and Fog 73 22.8 70 21.1 90 90 SSW 6 9 29.93 1014 4 6 0.00 0.00
7:53 am 07:53 Cloudy with Mist and Fog 73 22.8 70 21.1 90 90 S 5 7 29.93 1014 4 6 0.00 0.00
8:53 am 08:53 Cloudy 74 23.3 71 21.7 91 91 SSW 3 6 29.94 1014 9 14 0.00 0.00
9:53 am 09:53 Cloudy with Light Rain 75 23.9 71 21.7 88 88 SSW 3 6 29.94 1014 4 6 0.01 0.25
10:04 am 10:04 Cloudy with Light Rain 75 23.9 71 21.7 88 88 S 3 6 29.93 1014 4 6 0.01 0.25
10:44 am 10:44 Cloudy 78 25.6 72 22.2 82 82 SSW 6 9 29.92 1013 10 16 0.01 0.25
10:53 am 10:53 Cloudy 78 25.6 72 22.2 82 82 S 5 7 29.93 1014 10 16 0.01 0.25
11:53 am 11:53 Mostly Cloudy 80 26.7 71 21.7 74 74 Calm 29.92 1013 10 16 0.00 0.00
12:53 pm 12:53 Mostly Cloudy 82 27.8 71 21.7 69 69 VRB 6 9 29.91 1013 10 16 0.00 0.00
1:39 pm 13:39 Cloudy with Rain 80 26.7 71 21.7 74 74 W 12 19 29.89 1012 3 4 0.08 2.03
1:42 pm 13:42 Cloudy with Heavy Rain 78 25.6 71 21.7 79 79 WSW 7 11 29.90 1012 1 2 0.16 4.06
1:46 pm 13:46 Cloudy with Heavy Rain 77 25 71 21.7 82 82 VRB 3 6 29.90 1012 1 1 0.19 4.83
1:51 pm 13:51 Cloudy with Light Rain 79 26 72 22 79 79 SW 6 9 29.89 1012 2 2 0.19 4.83
1:53 pm 13:53 Cloudy with Light Rain 78 25.6 73 22.8 85 85 SW 7 11 29.90 1013 3 4 0.19 4.83
2:00 pm 14:00 Cloudy 81 27.2 75 23.9 82 82 SW 8 13 29.88 1012 10 16 0.00 0.00
2:53 pm 14:53 Mostly Cloudy 80 26.7 73 22.8 79 79 W 8 13 29.89 1012 10 16 0.00 0.00
3:53 pm 15:53 Cloudy 79 26.1 70 21.1 74 74 W 5 7 29.88 1012 10 16 0.00 0.00
4:53 pm 16:53 Sunny 83 28.3 72 22.2 70 70 W 3 6 29.86 1011 10 16 0.00 0.00
5:53 pm 17:53 Partly Cloudy 81 27.2 71 21.7 72 72 WSW 6 9 29.86 1011 10 16 0.00 0.00
6:53 pm 18:53 Mostly Sunny 80 26.7 72 22.2 76 76 NW 5 7 29.85 1011 10 16 0.00 0.00
7:53 pm 19:53 Partly Cloudy 79 26.1 71 21.7 77 77 NNW 7 11 29.85 1011 10 16 0.00 0.00
8:53 pm 20:53 Mostly Sunny 76 24.4 71 21.7 85 85 NW 3 6 29.85 1011 10 16 0.00 0.00
9:53 pm 21:53 Clear 73 22.8 70 21.1 90 90 Calm 29.83 1010 10 16 0.00 0.00
10:53 pm 22:53 Clear 73 22.8 70 21.1 90 90 Calm 29.85 1011 10 16 0.00 0.00
11:53 pm 23:53 Clear 72 22.2 69 20.6 91 91 Calm 29.84 1011 9 14 0.00 0.00

Powered by AerisWeather